Date String (YYYY-MM-DD hh:mm:ss) UTC,Instrument flags,Ambient pressure (hPa),Sample flow (lpm),Bypass flow (lpm),Sample temperature (°C),Ambient temperature (°C),ASC tube jacket temperature (°C),LED temperature (°C),Box temperature (°C),Sample RH (%),Span deviation,Mass concentration (μg/m³),Mass concentration (μg/m³),Mass concentration (μg/m³)
DateTimeUTC,F1_M11,P_M11,Q1_M11,Q2_M11,T1_M11,T2_M11,T3_M11,T4_M11,T5_M11,U1_M11,ZSPAN_M11,X0_M11,X2_M11,X1_M11
2021-11-02 10:00:00,,0832.5,4.99,0.00,23.3,22.4,00.0,32.3,25.1,21.4,0001.6,0015.68,0009.24,0008.13
2021-11-02 10:01:00,,0832.5,5.00,0.00,23.3,22.4,00.0,32.3,25.1,22.9,0001.5,0015.02,0009.30,0008.14
2021-11-02 10:02:00,,0832.6,5.00,0.00,23.3,22.4,00.0,32.3,25.1,22.0,0001.3,0015.43,0009.30,0008.14
2021-11-02 10:03:00,,0832.5,5.01,0.00,23.3,22.4,00.0,32.3,25.1,21.2,0001.3,0015.47,0009.23,0008.11
2021-11-02 10:04:00,,0832.5,4.99,0.00,23.3,22.4,00.0,32.3,25.1,21.0,0001.7,0014.98,0009.15,0008.07
2021-11-02 10:05:00,,0832.5,5.00,0.00,23.3,22.4,00.0,32.3,25.1,21.0,0001.8,0014.60,0009.12,0008.05
2021-11-02 10:06:00,,0832.4,4.99,0.00,23.3,22.4,00.0,32.3,25.1,21.0,0001.9,0014.77,0009.08,0008.03
2021-11-02 10:07:00,,0832.3,5.01,0.00,23.3,22.4,00.0,32.3,25.1,21.0,0002.0,0015.97,0009.06,0008.01
2021-11-02 10:08:00,,0832.3,5.00,0.00,23.3,22.4,00.0,32.3,25.1,20.9,0002.1,0016.51,0009.04,0008.02
2021-11-02 10:09:00,,0832.4,5.00,0.00,23.3,22.4,00.0,32.3,25.1,20.9,0000.6,0016.48,0009.04,0008.02
2021-11-02 10:10:00,,0832.3,4.99,0.00,23.3,22.4,00.0,32.3,25.1,20.9,0000.7,0016.60,0009.04,0008.04
2021-11-02 10:11:00,,0832.3,5.01,0.00,23.3,22.4,00.0,32.3,25.1,20.8,0000.8,0016.78,0009.10,0008.08
2021-11-02 10:12:00,,0832.3,5.00,0.00,23.3,22.4,00.0,32.3,25.1,20.8,0000.7,0016.96,0009.12,0008.12
2021-11-02 10:13:00,,0832.3,4.99,0.00,23.3,22.4,00.0,32.3,25.1,20.8,0000.8,0016.94,0009.17,0008.16
2021-11-02 10:14:00,,0832.4,4.98,0.00,23.3,22.4,00.0,32.3,25.1,20.8,-000.0,0016.65,0009.23,0008.21
2021-11-02 10:15:00,,0832.4,5.01,0.00,23.3,22.5,00.0,32.3,25.1,20.8,-000.1,0017.74,0009.31,0008.26
2021-11-02 10:16:00,,0832.4,5.00,0.00,23.3,22.4,00.0,32.3,25.1,20.8,-000.7,0018.30,0009.36,0008.30
2021-11-02 10:17:00,,0832.4,4.99,0.00,23.3,22.5,00.0,32.3,25.1,20.7,-000.6,0017.81,0009.38,0008.33
2021-11-02 10:18:00,,0832.4,5.01,0.00,23.3,22.5,00.0,32.3,25.1,20.7,-000.6,0016.73,0009.44,0008.37
2021-11-02 10:19:00,,0832.4,5.00,0.00,23.3,22.5,00.0,32.3,25.1,20.7,-000.2,0016.23,0009.47,0008.40
2021-11-02 10:20:00,,0832.3,5.01,0.00,23.3,22.5,00.0,32.3,25.1,20.7,0000.4,0015.72,0009.57,0008.43
2021-11-02 10:21:00,,0832.3,5.01,0.00,23.3,22.5,00.0,32.3,25.1,20.7,0000.3,0015.57,0009.61,0008.44
2021-11-02 10:22:00,,0832.3,4.99,0.00,23.3,22.5,00.0,32.3,25.1,20.7,0000.0,0015.37,0009.58,0008.43
2021-11-02 10:23:00,,0832.3,4.99,0.00,23.3,22.5,00.0,32.3,25.1,20.7,0000.0,0015.70,0009.58,0008.44
2021-11-02 10:24:00,,0832.3,5.01,0.00,23.3,22.5,00.0,32.3,25.1,20.7,0000.0,0015.53,0009.54,0008.43
2021-11-02 10:25:00,,0832.3,4.99,0.00,23.3,22.4,00.0,32.3,25.1,20.8,0000.0,0015.82,0009.58,0008.44
2021-11-02 10:26:00,,0832.3,5.01,0.00,23.3,22.4,00.0,32.3,25.1,20.8,0000.4,0015.21,0009.58,0008.43
2021-11-02 10:27:00,,0832.3,5.01,0.00,23.3,22.4,00.0,32.3,25.1,20.8,0000.7,0014.91,0009.64,0008.43
2021-11-02 10:28:00,,0832.3,4.98,0.00,23.3,22.5,00.0,32.3,25.1,20.8,0000.9,0015.61,0009.69,0008.43
2021-11-02 10:29:00,,0832.4,5.01,0.00,23.3,22.4,00.0,32.3,25.1,20.8,0000.9,0015.70,0009.68,0008.44
2021-11-02 10:30:00,,0832.4,4.99,0.00,23.3,22.4,00.0,32.3,25.1,20.8,0000.6,0015.66,0009.68,0008.45
2021-11-02 10:31:00,,0832.4,5.02,0.00,23.3,22.5,00.0,32.3,25.1,20.8,0000.1,0015.60,0009.59,0008.45
2021-11-02 10:32:00,,0832.3,4.99,0.00,23.3,22.5,00.0,32.3,25.1,20.8,-000.3,0015.75,0009.58,0008.47
2021-11-02 10:33:00,,0832.4,5.00,0.00,23.3,22.5,00.0,32.3,25.1,20.8,-000.3,0016.14,0009.59,0008.49
2021-11-02 10:34:00,,0832.3,4.99,0.00,23.3,22.5,00.0,32.3,25.1,20.8,-000.4,0015.86,0009.64,0008.50
2021-11-02 10:35:00,,0832.4,5.00,0.00,23.3,22.5,00.0,32.3,25.1,20.8,-000.1,0015.78,0009.70,0008.53
2021-11-02 10:36:00,,0832.4,5.00,0.00,23.3,22.5,00.0,32.3,25.1,20.8,0000.1,0015.41,0009.65,0008.53
2021-11-02 10:37:00,,0832.4,5.00,0.00,23.3,22.5,00.0,32.3,25.1,20.8,0000.1,0014.86,0009.65,0008.55
2021-11-02 10:38:00,,0832.4,5.01,0.00,23.3,22.5,00.0,32.3,25.1,20.8,-000.2,0014.54,0009.59,0008.57
2021-11-02 10:39:00,,0832.3,4.99,0.00,23.3,22.5,00.0,32.3,25.1,20.8,-000.6,0013.88,0009.57,0008.59
2021-11-02 10:40:00,,0832.3,5.00,0.00,23.3,22.5,00.0,32.4,25.1,20.8,-000.3,0013.60,0009.54,0008.60
2021-11-02 10:41:00,,0832.2,5.00,0.00,23.3,22.5,00.0,32.4,25.1,20.8,0000.4,0013.72,0009.55,0008.62
2021-11-02 10:42:00,,0832.3,5.00,0.00,23.3,22.5,00.0,32.4,25.1,20.8,0000.6,0014.37,0009.55,0008.63
2021-11-02 10:43:00,,0832.2,5.01,0.00,23.3,22.5,00.0,32.4,25.1,20.8,0000.8,0014.94,0009.58,0008.65
2021-11-02 10:44:00,,0832.2,5.00,0.00,23.3,22.5,00.0,32.4,25.1,20.8,0001.3,0014.66,0009.59,0008.65
2021-11-02 10:45:00,,0832.2,5.02,0.00,23.3,22.5,00.0,32.4,25.1,20.8,0001.4,0014.20,0009.53,0008.66
2021-11-02 10:46:00,,0832.1,4.99,0.00,23.3,22.5,00.0,32.4,25.1,20.8,0001.2,0014.76,0009.50,0008.68
2021-11-02 10:47:00,,0832.1,5.01,0.00,23.3,22.5,00.0,32.4,25.1,20.8,0000.5,0015.51,0009.56,0008.70
2021-11-02 10:48:00,,0832.1,5.01,0.00,23.3,22.5,00.0,32.4,25.1,20.8,0000.8,0015.65,0009.63,0008.74
2021-11-02 10:49:00,,0832.1,5.00,0.00,23.3,22.5,00.0,32.4,25.1,20.8,0000.9,0015.82,0009.74,0008.82
2021-11-02 10:50:00,,0832.1,5.00,0.00,23.3,22.5,00.0,32.4,25.1,20.8,0001.0,0016.04,0009.85,0008.90
2021-11-02 10:51:00,,0832.1,5.00,0.00,23.3,22.5,00.0,32.4,25.1,20.8,0000.4,0016.18,0009.93,0008.98
2021-11-02 10:52:00,,0832.1,4.99,0.00,23.3,22.5,00.0,32.4,25.1,20.9,-000.1,0016.07,0009.96,0009.01
2021-11-02 10:53:00,,0832.1,5.01,0.00,23.3,22.5,00.0,32.4,25.1,20.9,-000.2,0015.62,0009.97,0009.03
2021-11-02 10:54:00,,0832.1,4.99,0.00,23.3,22.5,00.0,32.4,25.1,20.9,0000.0,0015.08,0009.97,0009.04
2021-11-02 10:55:00,,0832.1,5.01,0.00,23.3,22.5,00.0,32.4,25.1,20.8,-000.1,0015.13,0009.97,0009.05
2021-11-02 10:56:00,,0832.1,5.00,0.00,23.3,22.5,00.0,32.4,25.1,20.8,0000.1,0015.27,0009.99,0009.04
2021-11-02 10:57:00,,0832.1,5.01,0.00,23.3,22.5,00.0,32.4,25.1,20.8,-000.0,0014.66,0010.02,0009.03
2021-11-02 10:58:00,,0832.1,4.99,0.00,23.3,22.5,00.0,32.4,25.1,20.8,-000.1,0014.14,0010.02,0009.01
2021-11-02 10:59:00,,0832.0,5.00,0.00,23.3,22.5,00.0,32.4,25.1,20.8,-000.2,0014.12,0009.99,0008.97
